Race Results for
The Parnassus Investments Burlingame Criterium
Burlingame , CA
(Event Information)
View By:
Criterium on 06/26/2011

Note: Ranking points are NOT upgrade points. An explanation of ranking points can be found here.


Men - Cat1/2/3 - Master - 35-99

 Place Points NameCity, StateTime USAC #BibTeam
1121.22Patrick Briggs   Oakland, CA00:00.0 4838  586 Yahoo Cycling Team
2124.75Dana Williams   Mill Valley, CA00:00.0 295988  565 Fusion Sport USA
3128.28Jan Weissenberger   San Francisco, CA00:00.0 186678  561 SAFEWAY/PureRed Creative/Bicyc
4131.80Judd Van Sickle   Sacramento, CA00:00.0 127052  558 Mercedes Benz/Folsom Bike
5135.33Michael Charleton   Windsor, CA00:00.0 49344  509 Red Peloton
6138.86Shaun Bagley   Visalia, CA00:00.0 60730  503 Momentum Racing California
7142.39Ryan Wong   San Jose, CA00:00.0 42770  568 Form Fitness
8145.91Andres Gil   Stockton, CA00:00.0 171882  590 Michael David Winery Cycling T
9149.44Chris Espy   Sacramento, CA00:00.0 61649  596 Morgan Stanley Smith Barney/Sp
10152.97John Foster (1 - Cat2)   Mountain View, CA00:00.0 43445  516 Form Fitness
11156.49James Badia   Redwood City, CA00:00.0 200949  502 Webcor/Alto Velo
12160.02Max Mack   Sacramento, CA00:00.0 45629  588 Health is Wealth
13163.55Pablo Espinosa   Mountain View, CA00:00.0 50576  587 
14167.08Patrick Tafoya   Redwood City, CA00:00.0 34910  550 SAFEWAY/PureRed Creative/Bicyc
15170.60Craig Stewart   Orinda, CA00:00.0 205201  548 Team Hammer Nutrition
16174.13Mark Andersen   San Francisco, CA00:00.0 290814  501 Audi
17177.66Rick Lawton   Pleasanton, CA00:00.0 141309  523 Wells Fargo Racing Team
18181.18Joe Molinari   Redwood City, CA00:00.0 24723  531 Form Fitness
19184.71Chris Wire   Saratoga, CA00:00.0 152176  566 SJBC
20188.24Richard Snodsmith   San Francisco, CA00:00.0 51411  546 FUSION SPORT USA
21191.77Rann Valdez   Pleasant Hill, CA00:00.0 142965  555 Precision Stone Racing
22195.29Chris Carscadden   Walnut Creek, CA00:00.0 165751  580 HDR Racing p/b Lombardi Sports
23198.82Todd Paoletti   Mill Valley, CA00:00.0 188747  535 Fustion Sport
24UNKNOWN RIDER   00:00.0  ??? -------
25205.87Jason Buckley   Sonoma, CA00:00.0 274029  572 Colavita Racing
26209.40Michael Ricks   Stockton, CA00:00.0 250319  591 Delta Velo
27212.93Brett Park (2 - Cat2)   San Rafael, CA00:00.0 134639  536 
28216.46John Fritz   Stockton, CA00:00.0 76287  517 Michael David Winery Racing Te
29219.98Scott Witthoff   San Francisco, CA00:00.0 114899  567 Fusion Sport
30223.51Raffi Jilizian   Danville, CA00:00.0 187667  521 form fitness
31227.04John O'Neill (3 - Cat2)   San Mateo, CA00:00.0 52722  577 Team Clover
32230.56Michael Boehme   Windsor, CA00:00.0 252576  507 Colavita Racing-Norcal
33234.09Rodrigo Contreras (1 - Cat3)   Stockton, CA00:00.0 236126  511 Michael David Winery Cycling T
34237.62Carl Hekkert   Sunnyvale, CA00:00.0 15729  518 FormFitness
35241.15Anders Dellien   Redwood City, CA00:00.0 355166  513 
36244.67Denin Sahovic   Sunnyvale, CA00:00.0 271126  543 Squadra Ovest Cycling
37UNKNOWN RIDER   00:00.0  ??? -------
38251.73Guy Van Natta   Clovis, CA00:00.0 218823  557 Momentum Cycling
39255.25Piet Vandervelde (2 - Cat3)   Morgan Hill, CA00:00.0 333070  556 Cal Giant
40258.78Michael O'Rourke   Auburn, CA00:00.0 204496  534 SAFEWAY/PureRed Creative/Bicyc
41262.31Mark Manning   Redwood City, CA00:00.0 87090  527 AR NAV Supplies
42265.84Nick Hanni (4 - Cat2)   San Francisco00:00.0 96693  579 Fusion Sport USA
43269.36Marc Peter Foose   San Francisco, CA00:00.0 11978  515 Fusion Sport
44272.89John Cavanaugh   Lafayette, CA00:00.0 172586  582 HDR Racing p/b Lombardi Sports
45276.42Pablo Serna (3 - Cat3)   Redwood City, CA00:00.0 48826  544 Form Fitness
46279.94Mitch Boehs   Livingston, CA00:00.0 237309  574 Sierra Pacific Racing
47283.47Aaron Feleay   Visalia, CA00:00.0 56822  514 Momentum Racing CA
48287.00George Skaates (5 - Cat2)   Burlingame, CA00:00.0 46391  575 Peninsula Velo/Pomodoro
49290.53William Sans   San Mateo, CA00:00.0 48284  576 Kinetic Cycles
50294.05Markus Roccaro   Burlingame, CA00:00.0 166766  542 Peninsula Velo/Pomodoro
51297.58Jordan Kobert   Palo Alto, CA00:00.0 49185  522 Sif Fifty Racing
52301.11John Blasquez   Livermore, CA00:00.0 3914  506 cvcc
53304.63Shawn Miller   Davis, CA00:00.0 24477  529 Davis Bike Club
54308.16Sean Tompkins   Morganhill, CA00:00.0 300546  553 SJBC
55311.69Joshua Lerner (6 - Cat2)   San Francisco, CA00:00.0 206346  524 Fusion Sport
56315.22David Yeung (7 - Cat2)   Palo Alto, CA00:00.0 71941  571 Divine Electric
57318.74Michael Woodburn   San Ramon, CA00:00.0 341576  569 Wells Fargo
58322.27Jack Rector (8 - Cat2)   San Ramon, CA00:00.0 29332  540 Form Fitness
59325.80Matthew Beebe (9 - Cat2)   Redwood City, CA00:00.0 205076  584 Team Bell Lap
60329.32Trevor White   Oakland, CA00:00.0 503  563 Hybrid Energy Products Cycling
61332.85Chris Patterson (4 - Cat3)   Hayward, CA00:00.0 88722  537 FormFitness
62336.38Christian Parker   San Mateo, CA00:00.0 213926  585 CoreTechs Cycling Team
63339.91Dan Tedford   Mountain View, CA00:00.0 196695  593 Squadra Ovest Cycling
64343.43Louis Toba   Palo Alto, CA00:00.0 56384  552 Webcor Alto Velo
65346.96Charles Pockell-Wilson   Martinez Ca00:00.0 52696  538 HDR Racing p/b Lombardi Sports
66350.49Jason Snovel   Sacramento, CA00:00.0 268577  547 Mercedes Benz/Folsom Bike
67354.02Lance Cameron   Pacific Grove, CA00:00.0 5900  592 Don Chapin Monterey Bay Racing
68357.54Cyrus Behroozi   Menlo Park, CA00:00.0 40408  505 Form Fitness
69361.07Steve Showler   Carmichael, CA00:00.0 32554  589 Morgan Stanley Smith Barney/Sp
70364.60Dennis Hopp   San Jose, CA00:00.0 54895  519 SJBC
71UNKNOWN RIDER   00:00.0  ??? -------
72UNKNOWN RIDER   00:00.0  ??? -------
73375.18Steven Olechny   Saratoga , CA00:00.0 142113  533 Taleo Racing
74378.71Emory Ball   Raleigh, NC00:00.0 179031  504 Audi
75382.23Robert White   Morgan Hill, CA00:00.0 97873  562 Bay101 Racing
76385.76Kyle Glerum   Burlingame, CA00:00.0 195470  583 SAFEWAY/PureRed Creative/Bicyc
77389.29Mark Walsh   Sacramento, CA00:00.0 46040  560 Berkeley Bicycle Club (BBC)
78392.81Nick Theobald   Burlingame, CA00:00.0 35297  551 SAFEWAY/PureRed Creative/Bicyc
79396.34Kevin Metcalfe   Pleasant Hill, CA00:00.0 47519  528 Team Specialized Racing Master
80399.87Christopher Lyman   Napa, CA00:00.0 267171  526 Team Specialized Racing
81403.40Paul Mircik   Los Altos, CA00:00.0 126621  530 Form Fitness
82406.92Ralph King   San Mateo, CA00:00.0 52299  573 Third Pillar
83410.45Shin Umeda   Sunnyvale, CA00:00.0 46023  554 Webcor/Alto Velo
84413.98Robin VanValkenburgh   Yuba City, CA00:00.0 62349  559 Mercedes Benz-Folsom Bike
85417.50John Pauley   Redwood City, CA00:00.0 27452  594 CoreTechs Cycling Team
86421.03Shawn Mehaffey (5 - Cat3)   Danville, CA00:00.0 126623  578 Wells Fargo Racing Team
87424.56Jonathan Racine   San Jose, CA00:00.0 200129  539 Great Basin Imaging | Kinetic
DNSRick Delgado   Port Jefferson, NY00:00.0 196670  512 CRCA/Team Setanta
DNSTim Lydon   Sunnyvale, CA00:00.0 21896  525 SJBC
DNPAndrew Adelman   Portola Valley, CA00:00.0 300501  500 CoreTechs Cycling Team
DNPScott Butler   Columbia, MO00:00.0 106701  508 Michael David Winery Cycling T
DNPChanning Chen (Cat2)   Burlingame, CA00:00.0 205706  510 Fusion Sport USA
DNPAllen Jackson   Sonora, CA00:00.0 260263  520 Wells Fargo Racing Team
DNPOscar Nunez   Menlo Park, CA00:00.0 220085  532 
DNPRob Robinson (Cat3)   Castro Valley, CA00:00.0 271386  541 Taleo Racing
DNPRichard Shields   Fremont, CA00:00.0 140693  545 Team Hammer Nutrition
DNPKeith Szolusha   Saratoga, CA00:00.0 109435  549 CoreTechs Cycling Team
DNPEric Wiecek   San Francisco, CA00:00.0 129295  564 Team Get-A-Grip Cycles
DNPGarrett Wynne   San Francisco, CA00:00.0 72643  570 The Olympic Club
DNPErnest Gallardo   Greenfield, CA00:00.0 90586  581 VOS Racing
DNPBo Hebenstreit   Campbell, CA00:00.0 196276  595 Form Fitness
DNPEric Wohlberg   San Jose, CA00:00.0 128575  597 Form Fitness

Men - Cat 4

 Place Points NameCity, StateTime USAC #BibTeam
1319.89Oscar Aguilera   Concord, CA00:00.0 271253  400 Dolce Vita
2325.34Jonathan Barbus   Los Altos, CA00:00.0 295596  402 Sterling Sports Group
3330.80Morgan Mahanke   El Dorado Hills, CA00:00.0 226577  442 Team Bicycles Plus/Sierra Neva
4336.25Branton Curt   Saratoga, CA00:00.0 218287  407 Los Gatos
5341.70Bill Quach   Houston, TX00:00.0 327834  426 Brown University
6347.15Erik Camacho   San Jose, CA00:00.0 303224  406 SJBC
7352.61Jonathan Halperin   Hastings On Hudson, NY00:00.0 285324  412 Team Roaring Mouse
8358.06Gregory Spanier   Alamo, CA00:00.0 332082  445 Taleo Racing
9363.51Percy Bautista   Pacifica, CA00:00.0 303915  403 Team Freewheel Bike Shop
10368.97Marc Mendoza   Santaclara, CA00:00.0 304967  423 SJBC
11374.42Vitaly Gashpar   San Francisco, CA00:00.0 273905  408 Colavita NorCal
12379.87Blake James   Clovis, CA00:00.0 326254  415 Momentum
13385.33Christopher Leibman   Palo Alto, CA00:00.0 314198  451 
14390.78Ron Meskis   Stockton, CA00:00.0 305400  450 Michael David Winery Cycling T
15396.23Brian Carr   San Francisco, CA00:00.0 274435  446 Berkeley Bicycle Club (BBC)
16401.68Jon Roldan   San Mateo, CA00:00.0 281910  429 Webcor/Alto Velo
17407.14Juan Raigoza   Redwood City, CA00:00.0 219477  427 Webcor / Alto Velo
18412.59Mackenzie Kelly   Santa Cruz, CA00:00.0 286297  449 
19418.04Nicholas Tudoni   Burlingame, CA00:00.0 244476  439 
20423.50Mark Santillan   Fairfield, CA00:00.0 306635  433 Luzvimin Racing Team
21428.95Mat Gordon   San Francisco, CA00:00.0 191313  411 Fusion Sport USA
22434.40Michael Baxter   Fremont, CA00:00.0 292026  404 Team Fremont/FFBC p/b Chipotle
23439.85Oliver Barajas   Hayward, CA00:00.0 333248  401 team fremont/ffbc powered by c
24445.31Peter Tousignant   Belmont, CA00:00.0 231855  438 third pillar
25450.76Hugh Anderson   Campbell, CA00:00.0 224530  448 
26456.21Allen Brumm   Foster City, CA00:00.0 195431  443 Webcor/Alto Velo
27461.67Nathaniel Lee   Notre Dame, IN00:00.0 282524  419 Notre Dame
28467.12Gabe Multer   Santa Cruz, CA00:00.0 331142  424 SJBC
29472.57Dominic Bati   Daly City, CA00:00.0 303947  441 Peninsula Velo/Pomodoro
30478.03Aaron Rindy   Reno, NV00:00.0 303731  428 
31483.48dominic salbatera   San Francisco, CA00:00.0 330940  432 
32488.93Steven Tortorelli   San Francisco00:00.0 332984  440 
33494.38Oliver Ryan   Sausalito, CA00:00.0 304360  430 R4R-Make A Wish
34499.84AMIN TAMARIZ   Belmont, CA00:00.0 277016  447 Webcor/Alto Velo
35505.29Joseph Sullivan   San Jose, CA00:00.0 336936  435 SJBC
36510.74Nicholas Geiser   San Francisco, CA00:00.0 307862  409 Yale Bulldog Cycling
37516.20Ivan Poddubnyy   San Jose, CA00:00.0 266310  425 Webcor/AltoVelo
38521.65Alex Braunstein   San Francisco, CA00:00.0 303430  405 Team Roaring Mouse
39527.10Tyler Swartz   San Francisco, CA00:00.0 304004  436 Team Roaring Mouse
40532.55Joshua Taylor   Sanfrancisco, CA00:00.0 287071  437 Team Roaring Mouse
41538.01Hussein Saffouri   Piedmont, CA00:00.0 41848  431 Berkeley Bike Club (BBC)
42543.46Casey Schwenk   San Mateo, CA00:00.0 336608  444 
43548.91Zachary Scott   Oakland, CA00:00.0 311530  434 
44554.37Justin Leong   Los Altos, CA00:00.0 280621  420 SJBC
DNSRyan Goldman   Mill Valley, CA00:00.0 229576  410 AC Cycle
DNSIsaias Job   Fremont, CA00:00.0 207885  416 Team Roaring Mouse
DNSNathaniel Kapinos   San Francisco, CA00:00.0 327832  417 Pen Velo
DNSBarry Krupowicz   Los Gatos, CA00:00.0 349376  418 
DNSRyan McKenna   San Francisco, CA00:00.0 253884  422 Franklin and Marshall College
DNPChris Hernikl   Pleasant Hill, CA00:00.0 304027  413 Taleo Racing
DNPMichael Hironimus   San Mateo, CA00:00.0 277802  414 Third Pillar
DNPRaoul MartinBlouin   Walnut Creek, CA00:00.0 303631  421 Taleo Racing

Men - Cat 4 - Master - 35-99

 Place Points NameCity, StateTime USAC #BibTeam
1336.31Alexander Palmer   Sanfrancisco, CA00:00.0 306488  647 Mission Cycling
2Francisco PADILLA   00:00.0  672 
3343.57Shawn Oliver   Morgan Hill, CA00:00.0 249822  645 SJBC
4347.20Maurice Reurich   Berkeley, CA00:00.0 336290  673 Colavita Racing
5350.83Blake James   Clovis, CA00:00.0 326254  625 Momentum
6354.47Jonathan Halperin   Hastings On Hudson, NY00:00.0 285324  620 Team Roaring Mouse
7358.10Scott Freiermuth   Menlo Park, CA00:00.0 59509  616 CoreTechs Cycling
8361.73Mark Foster   Portola Valley, CA00:00.0 319704  615 Core Techs Cycling Team
9365.36Chris King   San Francisco, CA00:00.0 245892  628 Dolce Vita Cycling
10368.99David Blizard   Sanfrancisco, CA00:00.0 307690  605 Peninsula Velo Cyling Club
11372.63James Williams   Danville, CA00:00.0 38350  669 Wells Fargo Racing Team
12376.26Sascha Messner   Fremont, CA00:00.0 280562  639 Taleo Racing
13379.89Juan Raigoza   Redwood City, CA00:00.0 219477  651 Webcor / Alto Velo
14383.52Hussein Saffouri   Piedmont, CA00:00.0 41848  657 Berkeley Bike Club (BBC)
15387.15Stefan Pommerenk   Hayward, CA00:00.0 325938  649 Peninsula Velo/Pomodoro
16390.78Dennis McGovern   Foster City, CA00:00.0 150239  636 SyCip
17394.42Tim Mitchell   Sanfrancisco, CA00:00.0 282752  640 NA
18398.05Christopher Leibman   Palo Alto, CA00:00.0 314198  630 Webcor/Alto Velo
19401.68Duke Kang   Aliso Viejo, CA00:00.0 305020  627 Dolce Vita Cycling
20405.31Jason Neu   Los Gatos, CA00:00.0 305688  642 SJBC
21408.94Brian Pantiga   Folsom, CA00:00.0 61633  648 Bicycle Planet
22412.58Huy Nguyen   Tracy, CA00:00.0 26028  676 Tracy Riders ICS
23416.21Trevor Oldershaw   Albany, CA00:00.0 294096  644 BBC
24419.84Dexter Aaron   San Carlos, CA00:00.0 304105  600 Peninsula Velo / Pomodoro
25423.47Percy Bautista   Pacifica, CA00:00.0 303915  677 Team Freewheel Bike Shop
26427.10Ron Meskis   Stockton, CA00:00.0 305400  638 Michael David Winery
27UNKNOWN RIDER   00:00.0  ??? -------
28434.37Gordon Richardson   Sacramento, CA00:00.0 198509  652 
29438.00Brandon Tyler   Sanmateo, CA00:00.0 298307  666 Peninsula Velo/Pomodoro
30441.63Dave Maminski   Campbell, CA00:00.0 270067  634 SJBC
31445.26Gregory Spanier   Alamo, CA00:00.0 332082  661 Taleo Racing
32448.89Robbie Abundis   Aptos, CA00:00.0 89807  601 Team Bicycle Trip/Symantec
33452.53Michael Baxter   Fremont, CA00:00.0 292026  604 Team Fremont/FFBC p/b Chipotle
34456.16Erik Camacho   San Jose, CA00:00.0 303224  606 SJBC
35459.79Curtis Ruegg   Redwood City, CA00:00.0 331362  655 Peninsula Velo/Pomodoro
36463.42Kevin Grundmann   Foster City, CA00:00.0 257112  618 peninsula velo/pomodoro
37467.05Charles Spelman   Sausalito, CA00:00.0 309360  662 Z Team
38470.69Allen Brumm   Foster City, CA00:00.0 195431  671 Webcor/Alto Velo
39474.32Dan Romo   Campbell, CA00:00.0 306608  654 SJBC
40477.95Philip Cooper   San Mateo, CA00:00.0 333274  610 Peninsula Velo/Pomodoro
41481.58Ryan Nickelson   Danville, CA00:00.0 227002  643 Wells Fargo Racing Team
42485.21Frank Lunceford Sr   El Dorado Hills, CA00:00.0 273343  631 Bicycle Planet
43488.84Romeo Uriarte   Orinda, CA00:00.0 262503  667 Wells Fargo Racing Team
44492.48Juan Ortiz   Castro Valley, CA00:00.0 26838  646 
45496.11Mark Powers   San Mateo, CA00:00.0 236460  650 Peninsula Velo/Pomodoro
46499.74Joseph Sullivan   San Jose, CA00:00.0 336936  663 SJBC
47503.37Tim Huang   Santa Clara, CA00:00.0 334324  624 SJBC
48507.00Dean Fantham   Burlingame, CA00:00.0 280850  614 Peninsula Velo/Pomodoro
49510.64Peter Delahunt   San Mateo, CA00:00.0 303750  612 Peninsula Velo/Pomodoro
50514.27Chris McCrary   Danville, CA00:00.0 289122  635 Forward Motion Race Club
51517.90Michael Hironimus   San Mateo, CA00:00.0 277802  623 Third Pillar
52521.53don grijalva   San Jose, CA00:00.0 333498  617 sjbc
53525.16Greg Robley   San Anselmo, CA00:00.0 331938  653 StudioVelo
54528.80Barry Krupowicz   Los Gatos, CA00:00.0 349376  629 
55532.43Todd Munk   Morgan Hill, CA00:00.0 296426  641 SJBC
56536.06B Thomas Rice   Redwood City, CA00:00.0 260611  674 
57539.69AMIN TAMARIZ   Belmont, CA00:00.0 277016  664 Webcor/Alto Velo
58Bill MCGOWEN   00:00.0  637 
59546.95Eamonn Gormley   Sunnyvale, CA00:00.0 282501  675 Los Gatos
DNSJohn Anner   Albany, CA00:00.0 303115  602 Berkeley Bicycle Club
DNSPhilippe Azoulay   San Jose, CA00:00.0 207662  603 SJBC
DNSEric Clauss   San Francisco, CA00:00.0 198040  609 Squadra Ovest Cycling
DNSEric DOWNING   00:00.0  613 MISSION SF
DNSBrett Habermann   Tiburon, CA00:00.0 288557  619 Evergreen Cycling
DNSPatrick Hampton   Cambria, CA00:00.0 218958  621 ArtsCyclery.com / Wild Horse W
DNSIsaias Job   Fremont, CA00:00.0 207885  626 Team Roaring Mouse
DNSJim Sallee   San Francisco, CA00:00.0 88987  658 Zeitgeist Racing
DNSJames Whitney   Lincoln, CA00:00.0 51073  668 Fusion Sport
DNPJeffrey Campbell   Oakland, CA00:00.0 195385  607 R4R - Make A Wish
DNPCharlie Castro   San Francisco, CA00:00.0 226231  608 Dolce Vita Cycling
DNPYutch Cowhie   Fair Oaks, CA00:00.0 261718  611 Rio Strada Racing
DNPChris Hernikl   Pleasant Hill, CA00:00.0 304027  622 Taleo Racing
DNPGregg Machacz   Redwood City, CA00:00.0 178581  632 Sterling Sports Group
DNPOliver Ryan   Sausalito, CA00:00.0 304360  656 R4R-Make A Wish
DNPHerman Shum   Dublin, CA00:00.0 286381  659 Christian Cycling - Hammer Nut
DNPDevinderjit Singh   Yuba City, CA00:00.0 296818  660 Body Concepts
DNPPeter Tousignant   Belmont, CA00:00.0 231855  665 third pillar
DNPRaymond Wong   Elk Grove, CA00:00.0 53811  670 Davis bike club race team

Men - Cat 3

 Place Points NameCity, StateTime USAC #BibTeam
1224.68Kieran Cox   Oakland, CA00:00.0 244305  311 Berkeley Bicycle Club
2227.33Kenny Lane   Citrus Heights, CA00:00.0 274485  323 Rio Strada
3229.98Jeromy Cottell   Redwood City, CA00:00.0 273912  310 Peninsula Velo / Pomodoro
4232.63Keven Bricknell   San Francisco, CA00:00.0 253261  305 Team Mike's Bikes
5235.28Aaron Feleay   Visalia, CA00:00.0 56822  314 Momentum Racing CA
6237.93Ian Swinson   Oakland, CA00:00.0 255539  360 Squadra Ovest Cycling
7240.59Nick Pelly   Palo Alto, CA00:00.0 304140  335 
8243.24Jason Buckley   Sonoma, CA00:00.0 274029  357 Colavita Racing
9245.89Jonathan (Jon) Rotzien   Stanford, CA00:00.0 155766  340 STANFORD UNIVERSITY
10248.54Ryan Johnson   San Francisco, CA00:00.0 288483  320 Team Mike's Bikes
11251.19Cody Tapley   Citrus Heights, CA00:00.0 234610  349 Whole Athlete/Specialized
12253.84Joe Molinari   Redwood City, CA00:00.0 24723  328 Form Fitness
13256.49Craig Stewart   Orinda, CA00:00.0 205201  359 Team Hammer Nutrition
14259.14Nathan Shaw   Castro Valley, CA00:00.0 196249  344 Fusion Sport
15261.79Sean Tompkins   Morganhill, CA00:00.0 300546  351 SJBC
16264.44Rodrigo Contreras   Stockton, CA00:00.0 236126  309 Michael David Winery Cycling T
17267.10Craig Fellers   Novato, CA00:00.0 275223  315 Red Peloton
18UNKNOWN RIDER   00:00.0  ??? -------
19272.40Piet Vandervelde   Morgan Hill, CA00:00.0 333070  371 
20275.05Kashy Ghazzagh   Santa Rosa, CA00:00.0 295719  318 Red Peloton
21277.70Cyrus Behroozi   Menlo Park, CA00:00.0 40408  301 Form Fitness
22280.35Louis Toba   Palo Alto, CA00:00.0 56384  350 Webcor Alto Velo
23283.00Randall Smith   San Carlos, CA00:00.0 185237  358 Peninsula Velo/Pomodoro
25285.65Scott Witthoff   San Francisco, CA00:00.0 114899  354 Fusion Sport
26288.30Todd Kohli   San Francisco, CA00:00.0 198414  321 Kryki Sports Audi Cycling
27290.95R Todd Marshall   Sacramento, CA00:00.0 43936  366 Kinetic Cycles/GBI
28293.61fergus tanaka   San Francisco, CA00:00.0 304367  348 chica sexy
29296.26Greg Rodrigues   San Francisco, CA00:00.0 297955  339 Fusion
30298.91Eric Davis   Novato, CA00:00.0 207923  365 Audi
31301.56Shawn Miller   Davis, CA00:00.0 24477  326 Davis Bike Club
32304.21William Ruffner   Morgan Hill, CA00:00.0 220929  341 Bay 101 Racing
33306.86Mark Chaisson   Seattle, WA00:00.0 90030  307 Peninsula Velo/Pomodoro
34309.51Scott Peradotto   San Francisco00:00.0 190044  372 Fusion Sport USA
35312.16Mitch Boehs   Livingston, CA00:00.0 237309  373 Sierra Pacific Racing
36314.81Musa Zaid   San Francisco , CA00:00.0 204256  364 
37317.46Scott Butler   Columbia, MO00:00.0 106701  306 Michael David Winery Cycling T
38320.11Bernhard Stonas   Hayward, CA00:00.0 67169  346 BBC
39322.77Anders Dellien   Redwood City, CA00:00.0 355166  313 
40325.42Santiago Bolon   San Jose, CA00:00.0 195384  303 Christian Cycling - Hammer Nut
41328.07Marc Peter Foose   San Francisco, CA00:00.0 11978  316 Fusion Sport
42330.72Ross Tinline   San Carlos, CA00:00.0 35623  367 Peninsula Velo/Pomodoro
43333.37Naveen Molloy   Sanfrancisco, CA00:00.0 283139  329 Metromint Cycling
44336.02Sheen Yen   Fremont, CA00:00.0 186794  356 Form Fitness
45338.67John Wilde   San Francisco, CA00:00.0 225246  353 
46341.32Rob Robinson   Castro Valley, CA00:00.0 271386  338 Taleo Racing
47343.97Jonathan Racine   San Jose, CA00:00.0 200129  337 Great Basin Imaging | Kinetic
48346.62Ethan Sopenski   Chardon Ohio00:00.0 329942  361 SJBC
49349.28Jeffrey Palileo   American Canyon, CA00:00.0 224717  333 Squadra Ovest Cycling
50351.93Byron Anson   West Sacramento, CA00:00.0 304735  363 Team City Sacramento
51354.58Anthony Coando   San Francisco, CA00:00.0 170101  308 Squadra Ovest
52357.23Denin Sahovic   Sunnyvale, CA00:00.0 271126  342 Squadra Ovest Cycling
53359.88Matthew Abdalah   Los Altos, CA00:00.0 224627  369 
54362.53Christian Parker   San Mateo, CA00:00.0 213926  362 CoreTechs Cycling Team
55365.18Joseph Ison   San Francisco, CA00:00.0 302419  319 Metromint Cycling
56367.83Michael Boehme   Windsor, CA00:00.0 252576  302 Colavita Racing-Norcal
57370.48Bill Laddish   Castro Valley, CA00:00.0 20105  322 NA
DNSDan Adkins   Oakland, CA00:00.0 177509  300 Metromint Cycling
DNSRick Delgado   Port Jefferson, NY00:00.0 196670  312 CRCA/Team Setanta
DNSPaul Mircik   Los Altos, CA00:00.0 126621  327 Form Fitness
DNSRobert Orcutt   Scotts Valley, CA00:00.0 269340  332 Webcor/Alto Velo
DNSGuy Van Natta   Clovis, CA00:00.0 218823  352 Momentum Cycling
DNSGarrett Wynne   San Francisco, CA00:00.0 72643  355 The Olympic Club
DNPAnthony Borba   Campbell, CA00:00.0 255377  304 Third Pillar
DNPBrandon Meadows   Sacramento, CA00:00.0 250736  324 Rio Strada Racing
DNPDavid Mesa   Crockett, CA00:00.0 243257  325 Chica Sexy Beauty Salon
DNPMichael Mulvihill   Durham, NC00:00.0 306964  330 Fusion Sport USA
DNPOscar Nunez   Menlo Park, CA00:00.0 220085  331 
DNPChris Patterson   Hayward, CA00:00.0 88722  334 FormFitness
DNPjimmy pham   Martinez, CA00:00.0 322442  336 Taleo Racing
DNPPablo Serna   Redwood City, CA00:00.0 48826  343 Form Fitness
DNPGary Stein   San Francisco, CA00:00.0 159974  345 Third Pillar
DNPRey Surla   Fremont, CA00:00.0 91423  347 Team Fremont/FFBC p/b Chipotle
DNPGregory Hillson   San Francisco , CA00:00.0 234863  368 
DNPRalph King   San Mateo, CA00:00.0 52299  370 Third Pillar
DNPErnest Gallardo   Greenfield, CA00:00.0 90586  317 Vos Racing

Men - Cat 1/2 - Open

 Place Points NameCity, StateTime USAC #BibTeam
1119.82Andrew Goessling (1 - Cat1)   Richmond, CA00:00.0 207262  79 Fire Figther Cycling
2123.07Martin Acosta   East Palo Alto, CA00:00.0 291277  McGuire Cycling Team
3126.33Robert Newman   Los Gatos, CA00:00.0 53327  86 Michael David Winery Cycling T
4129.58Paul Penn   Hayward, CA00:00.0 57836  51 Wells Fargo Racing Team
5132.83Judd Van Sickle   Sacramento, CA00:00.0 127052  39 Mercedes Benz/Folsom Bike
6136.09Stephen Pelaez   San Francisco, CA00:00.0 64481  27 Team Mikes Bikes
7139.34Andrew Kennedy   Martinez, CA00:00.0 257276  16 Fremont Bank Cycling Team
8142.59Matthew Obregon (2 - Cat1)   Folsom, CA00:00.0 232613  80 Team Bicycles Plus/Sierra Neva
9145.85John Wilk (3 - Cat1)   Oakland, CA00:00.0 199951  43 Webcor/Alto Velo
10149.10Michael Ma   San Jose, CA00:00.0 41600  73 Form Fitness
11152.35Luke Ramseth   Colfax, CA00:00.0 208152  28 Fremont Bank Cycling Team
12155.61Pablo Espinosa   Mountain View, CA00:00.0 50576  50 
13158.86Kirk Carlsen   Orinda, CA00:00.0 138681  70 
14162.11Andres Gil   Stockton, CA00:00.0 171882  53 Michael David Winery Cycling T
15165.37Mark Manning   Redwood City, CA00:00.0 87090  22 AR NAV Supplies
16168.62Mark Marquez   Martinez, CA00:00.0 288881  76 Fremont Bank Cycling Team
17171.87Philip Roberts   Oakland, CA00:00.0 30110  78 Missing Link Bicycle Co-op
18175.13Adam Ross   Folsom, CA00:00.0 167796  31 Fremont Bank Cycling Team
19178.38Joe Dickerson   Los Gatos, CA00:00.0 306664  McGuire Cycling Team
20181.63Carl Hekkert   Sunnyvale, CA00:00.0 15729  11 FormFitness
21184.89Robert MacNeill   San Carlos, CA00:00.0 199599  71 Webcor/Alto Velo
22188.14Robert Evans (1 - Cat2)   Scotts Valley, CA00:00.0 72893  McGuire Cycling Team
23191.39Eric Wohlberg   San Jose, CA00:00.0 128575  68 Form Fitness
24194.65Sean Smith   Oakland, CA00:00.0 204018  66 Webcor/Alto Velo
25197.90Keith Hillier   Millbrae, CA00:00.0 276108  62 Marc Pro - Strava
26201.15Andrew Touchstone   San Francisco, CA00:00.0 132946  75 Olympic Club
27204.41Ariel Herrmann   San Francisco, CA00:00.0 163046  12 Metromint Cycling
28207.66Keith Szolusha (4 - Cat1)   Saratoga, CA00:00.0 109435  38 CoreTechs Cycling Team
29210.91Travis T   San Francisco, CA00:00.0 158451  72 Metromint Cycling
30214.17Jason King (5 - Cat1)   Napa, CA00:00.0 211026  17 Echelon Racing Development
31217.42Jordan Kobert   Palo Alto, CA00:00.0 49185  18 Sif Fifty Racing
32Yury YURCHANKA   00:00.0  47 Third Pillar
33223.93Michael Ricks   Stockton, CA00:00.0 250319  54 Delta Velo
34227.18Brian Johnston (2 - Cat2)   San Francisco, CA00:00.0 237599  74 Audi
35230.43Shane Lawlor   San Clemente, CA00:00.0 195580  83 SKLZ p/b PISTA PALACE
36233.69Shawn Rosenthal   Berkeley, CA00:00.0 196247  30 Team Mike's Bikes
37236.94Jamie Willin   Redwood City, CA00:00.0 38466  69 Olympic Club
38240.19William Sans   San Mateo, CA00:00.0 48284  48 Kinetic Cycles/GBI
39243.44Graham Simpson   Carmel Valley, CA00:00.0 65800  82 Webcor/Alto Velo
40246.70David Yeung (3 - Cat2)   Palo Alto, CA00:00.0 71941  46 Divine Electric
41249.95Raffi Jilizian   Danville, CA00:00.0 187667  15 form fitness
42UNKNOWN RIDER   00:00.0  ??? -------
43256.46Kevin Metcalfe   Pleasant Hill, CA00:00.0 47519  24 Team Specialized Racing Master
44259.71Carmi Schulman   Seattle, WA00:00.0 200292  Webcor/Alto Velo
45262.96Jack Rector (4 - Cat2)   San Ramon, CA00:00.0 29332  29 Form Fitness
46266.22Eric Wiecek   San Francisco, CA00:00.0 129295  42 Team Get-A-Grip Cycles
47269.47David Pouncy   Piedmont, CA00:00.0 248071  84 Squadra Ovest Cycling
48272.72Angelo DiGiovine (5 - Cat2)   San Francisco, CA00:00.0 141326  Squadra Ovest Cycling
49275.98Kevin Swanson (6 - Cat2)   Santa Rosa, CA00:00.0 56660  77 
50279.23Christopher Lyman   Napa, CA00:00.0 267171  21 Team Specialized Racing
51282.48Doran Mori   Oakland, CA00:00.0 196267  25 Team Clif Bar Cycling
52285.74Elliot Jaramillo (6 - Cat1)   Burlingame, CA00:00.0 179930  13 McGuire Cycling
53288.99Sergei Badeka   Palo Alto, CA00:00.0 118797  McGuire Cycling Team
54292.24Michael Jasinski (7 - Cat1)   Rocklin, CA00:00.0 269476  14 Fremont Bank Cycling Team
55295.50Luther Kopf (7 - Cat2)   Oakland, CA00:00.0 205705  19 Dolce Vita Cycling
56298.75Ryan MacDonald (8 - Cat2)   Martinez, CA00:00.0 160274  57 Fremont Bank Cycling Team
57302.00Bo Hebenstreit   Campbell, CA00:00.0 196276  60 Form Fitness
58305.26Trevor White   Oakland, CA00:00.0 503  41 Hybrid Energy Products Cycling
59308.51Rand Miller (8 - Cat1)   San Francisco, CA00:00.0 182990  59 Webcor/Alto Velo
60311.76Phillip Wood (9 - Cat2)   Salt Lake City, UT00:00.0 214304  45 FFKR Architects/SportsBaseOnli
61315.02Robert Meyer (10 - Cat2)   Mountain View, CA00:00.0 255751  49 Metromint Cycling
62318.27Christopher Coble   San Francisco, CA00:00.0 220196  81 Olympic Club
63321.52Richard Snodsmith   San Francisco, CA00:00.0 51411  34 FUSION SPORT USA
64324.78Mark Walsh   Sacramento, CA00:00.0 46040  67 Berkeley Bicycle Club (BBC)
65328.03Jason Snovel   Sacramento, CA00:00.0 268577  35 Mercedes Benz/Folsom Bike
66331.28Emory Ball   Raleigh, NC00:00.0 179031  56 Audi
DNSDavid McCook   Tampa Fl00:00.0 66627  23 McGuire Cycling Team
DNSJames Ryan (Cat2)   San Jose, CA00:00.0 163902  32 McGuire Cycling Team
DNSTodd Stone   Carmichael, CA00:00.0 249318  37 Fremont Bank Cycling Team
DNPVictor Becerra   San Anselmo, CA00:00.0 52809  Divine Electric Norcal
DNPPatrick Briggs   Oakland, CA00:00.0 4838  Yahoo! Cycling Team
DNPWilliam (Billy) Crane   Mountain View, CA00:00.0 138129  Webcor/Alto Velo
DNPDarin Divine   Mill Valley, CA00:00.0 97504  Divine Electric Norcal
DNPJohn Fritz   Stockton, CA00:00.0 76287  10 Michael David Winery Racing Te
DNPJoshua Lerner (Cat2)   San Francisco, CA00:00.0 206346  20 Fusion Sport
DNPTodd Paoletti   Mill Valley, CA00:00.0 188747  26 Fustion Sport
DNPRobert Sorenson   Palo Alto, CA00:00.0 33491  36 Millcreek Bicycles
DNPRobin VanValkenburgh   Yuba City, CA00:00.0 62349  40 Mercedes Benz-Folsom Bike
DNPDana Williams   Mill Valley, CA00:00.0 295988  44 Fusion Sport USA
DNPSteve Showler   Carmichael, CA00:00.0 32554  52 Morgan Stanley Smith Barney/Sp
DNPMark Andersen   San Francisco, CA00:00.0 290814  55 Audi
DNPShaun Bagley   Visalia, CA00:00.0 60730  58 Momentum Racing California
DNPJoel Robertson (Cat1)   San Leandro, CA00:00.0 220316  61 Webcor/Alto Velo
DNPChris Espy   Sacramento, CA00:00.0 61649  63 Morgan Stanley Smith Barney/Sp
DNPJason MOORE   00:00.0  64 Delta Velo
DNPKeith Miller (Cat1)   Los Gatos, CA00:00.0 53753  65 California Giant Berry Farms/S
DNPBrandon Correia   Alameda, CA00:00.0 188308  85 Metromint Cycling

Women - Cat1/2/3

 Place Points NameCity, StateTime USAC #BibTeam
1139.73Martina Patella   Oakland, CA00:00.0 195334  228 Red Racing
2146.11Elis Bradshaw   Oakland, CA00:00.0 208125  203 Touchstone Climbing
3152.50Anna Barensfeld   Ellwood City Pa00:00.0 234148  232 Missing Links Coaching & Train
4158.88Jane Robertson   Davis, CA00:00.0 218607  231 Metromint Cycling
5165.27Amy Chandos   Flagstaff, AZ00:00.0 256409  241 Fremont Bank Cycling Team
6Rider Unknown   00:00.0  238 
7178.04Rikke Preisler   Redwood City, CA00:00.0 293725  213 Metromint Cycling
8184.42Karena Shannon (1 - Cat3)   Castro Valley, CA00:00.0 266333  217 Team Sycomp/Team Affinity
9190.81Holly Liske (1 - Cat2)   Stanford, CA00:00.0 190109  229 Webcor/Alto Velo
10197.19Jennie Phillips   Danville, CA00:00.0 203722  212 Wells Fargo Racing Team
11203.58Emily Matheu   Oakland, CA00:00.0 277109  239 Red Racing
12209.96Anne Fulton   Palo Alto, CA00:00.0 275624  205 Metromint Cycling
13216.35Heather Ross   Felton, CA00:00.0 239612  215 Spokesman
14222.73Kira Prokopakis   Santa Clara, CA00:00.0 283149  214 Los Gatos
15229.12Megan Melack   Santa Cruz, CA00:00.0 302381  210 RED Racing
16235.50Heather Lipana   Folsom, CA00:00.0 333090  236 Rio Strada Racing
17241.89Emily Weinert   Atlanta, GA00:00.0 282470  222 Team TIBCO II
18248.27Lucia Mokres   Redwood City, CA00:00.0 262113  233 Los Gatos
19254.66Amy Russo   Santa Cruz, CA00:00.0 134488  225 Red Racing
20261.04Kim Wik   Fremont, CA00:00.0 254251  223 Sycomp Racing
21267.43Monica Holt   Saratoga, CA00:00.0 268263  207 Sycomp Racing
22273.82Kelly Bartholomew   San Rafael, CA00:00.0 48431  200 SJBC
23280.20Fiona Strouts   Menlo Park, CA00:00.0 338404  230 
24286.59Josephine Morgan   Oakland, CA00:00.0 242553  211 Michael David Winery
25292.97Shaun Baesman (2 - Cat3)   San Carlos, CA00:00.0 196302  224 Peninsula Velo/Pomodoro
26299.36Yukie Nakamura (2 - Cat2)   Los Altos, CA00:00.0 179928  235 Form Fitness
27305.74Danielle Haulman   Davis, CA00:00.0 181367  206 Team TIBCO II
28312.13Eileen Mazzochette   Menlo Park, CA00:00.0 292420  227 Metromint Cycling
29318.51Heather Nielson   Seattle, WA00:00.0 237346  234 Touchstone Climbing
30324.90Kerry Stivaletti   Los Gatos, CA00:00.0 239419  226 Team TIBCO II
31Joanne HOGAN   00:00.0  240 St Kilda Cycling
32337.67Leah Toeniskoetter   Sanjose, CA00:00.0 281828  220 Team TIBCO II
33344.05Rhonda Serr   Reno00:00.0 278473  216 Dolce Vita Cycling
34350.44Rita Szeto   Crockett, CA00:00.0 195322  219 Touchstone Climbing
35356.82Ann Kodani (3 - Cat3)   Mountain View, CA00:00.0 143018  209 Team Tibco II
36363.21Jennifer Van Muckey (3 - Cat2)   Campbell, CA00:00.0 207585  221 Sycomp Racing
37369.59Ann Stuart   Sacramento, CA00:00.0 250365  218 Touchstone Climbing
38375.98Mary Ellen Ash   Menlo Park, CA00:00.0 254874  242 Metromint Cycling
39382.36Carol Irving   Woodland, CA00:00.0 17419  208 Touchstone Climbing
40388.75Joanna Bechtel   Oakland, CA00:00.0 272856  201 Sycomp Racing
DNSShari Countryman (Cat3)   Foster City, CA00:00.0 304790  204 Team TIBCO II
DNPCarola Berger   Redwood City, CA00:00.0 184962  202 
DNPKim Ladd   Palo Alto, CA00:00.0 250460  237 Sycomp Racing

Women - Cat 4

 Place Points NameCity, StateTime USAC #BibTeam
1411.55Colene Crowley   Carmichael, CA00:00.0 129693  703 Rio Strada
2420.88Michelle Bandoni   San Jose, CA00:00.0 305567  714 SJBC
3430.21Kaya Cohn   El Cerrito, CA00:00.0 298978  702 Metromint Cycling
4439.55Carole Sykes   Tiburon00:00.0 270735  716 Peninsula Velo/Pomodoro
5448.88Dana Freedman   Menlo Park, CA00:00.0 273191  705 Team TIBCO II
6458.21Pat Bailey   Sausalito, CA00:00.0 326106  700 Dolce Vita Cycling
7467.54June Nguyen   Santa Rosa00:00.0 277526  709 Precision Stone Racing
8476.88Pooja Bhatia   San Jose, CA00:00.0 306273  701 SJBC
9486.21Heather McDonald   San Francisco, CA00:00.0 307890  713 Metromint Cycling
10495.54Darien Reed   San Francisco, CA00:00.0 338764  711 
11504.87Kelly Mason   San Francisco, CA00:00.0 329776  708 Dolce Vita Cycling
12514.20Tina Huang   San Francisco, CA00:00.0 298240  712 Metromint Cycling
13523.54Erin Lindheim   San Anselmo, CA00:00.0 251958  717 Sycomp Racing
14532.87Sharon Greenberg   Sanjose, CA00:00.0 305986  715 Team TIBCO II
15542.20Angela Liu   Menlo Park, CA00:00.0 250461  707 Team TIBCO II
DNSJoie Franco   Fremont, CA00:00.0 262057  704 Team Affinity/Sycomp Racing
DNSamanda gentile   Roslindale, MA00:00.0 350456  706 NEBC p/b Cycle Loft
DNSBrett Ortiz   San Francisco, CA00:00.0 271361  710 Dolce Vita

Women - Master - 35-99

 Place Points NameCity, StateTime USAC #BibTeam
1403.49Elena Joroski   San Jose, CA00:00.0 304925  746 SJBC
2419.68Tanya Grossman   Castro Valley, CA00:00.0 356222  747 FMRC
3435.87Jan Reed   Menlopark, CA00:00.0 310370  742 Velo Girls
4452.06Jill Eyres   Montara, CA00:00.0 282468  740 Team TIBCO II
5468.25Kelly Snow   San Francisco, CA00:00.0 255117  743 Dolce Vita Cycling
6484.44Yvonne Walbroehl   Mountain View, CA00:00.0 219164  744 Peninsula Velo/Pomodoro
7500.63Kris Opbroek   Sausalito, CA00:00.0 331400  741 Dolce Vita
8516.82Brandi Bergstrom (1 - Cat4)   San Francisco, CA00:00.0 264433  745 Dolce Vita Cycling

Report missing or incorrect license numbers

Volkswagen
CUOREShimanoSpyUSACDFSierra NevadaBonk Breaker
UCI USA Cycling is the official governing body for all disciplines of competitive cycling in the United States. The 501c3, membership-based organization aims both to achieve sustained success in international cycling competition and to grow competitive cycling in America while delivering an exceptional customer experience.
View Children's Online Privacy Protection Policy
US Olympic Committee